sat.trackr.live / text

‹ back to catalog

STARLINK-32476

NORAD 61550 · 2024-184U

PAYLOAD ACTIVE UNKNOWN

§ Identity

Operator
Country
US
Launch date
2024-10-15
Launch site
AFWTR
Launch vehicle
Mass (kg)
RCS (m²)

Purposes: comms

External: N2YO · Heavens-Above · Gunter

§ Orbital elements

Epoch: 2026-09-21T12:02:42.329184Z

Period
93.85 min
Inclination
53.1604°
Eccentricity
0.0001065
Mean motion
15.34384503 rev/d
Perigee alt
462.0 km
Apogee alt
463.5 km
Semi-major
6,840.9 km
B*
9.9236e-6
RAAN
181.0879°
Arg perigee
78.1927°
Mean anomaly
281.9195°
Rev number
10,853

§ Raw data

STARLINK-324761 61550U 24184U   26264.50187881 -.00000041  00000+0  99236-5 0  99932 61550  53.1604 181.0879 0001065  78.1927 281.9195 15.34384503108536

JSON: /api/v1/satellites/61550 · /tle

For live sub-satellite position, see the globe view (requires WebGL).

§ Visibility from observer

Set your observer location to see the next 7 days of passes ≥ 10°. The values pass through the URL so the page stays shareable.

No JS? Fill the form by hand. The geolocation button needs JavaScript.